Sigfox identifier Datetime Temperature Humidity SNR
003AD0EB 2019-02-20 13:47:37 20.9 24 22.1
003AD0EB 2019-02-20 13:17:56 20.9 24 22.1
003AD0EB 2019-02-20 12:48:11 20.9 25 20.9
003AD0EB 2019-02-20 11:48:52 20.9 25 21
003AD0EB 2019-02-20 11:19:07 20.8 26 19.5
003AD0EB 2019-02-20 10:49:29 20.8 26 19.5
003AD0EB 2019-02-20 10:19:44 20.8 26 17
003AD0EB 2019-02-20 09:50:03 20.8 26 16.9
003AD0EB 2019-02-20 09:20:22 20.8 26 17.1
003AD0EB 2019-02-20 08:50:41 20.8 26 17
003AD0EB 2019-02-20 08:20:59 20.8 26 17.1
003AD0EB 2019-02-20 07:51:17 20.8 26 17.1
003AD0EB 2019-02-20 07:21:36 20.8 26 17
003AD0EB 2019-02-20 06:51:54 20.8 26 16.9
003AD0EB 2019-02-20 06:22:13 20.8 26 17
003AD0EB 2019-02-20 05:52:32 20.8 26 16.9
003AD0EB 2019-02-20 05:22:49 20.8 26 16.4
003AD0EB 2019-02-20 04:53:05 20.8 26 16.1
003AD0EB 2019-02-20 04:23:23 20.9 26 16.1
003AD0EB 2019-02-20 03:53:40 20.8 26 15.4
003AD0EB 2019-02-20 03:23:57 20.9 26 15.2
003AD0EB 2019-02-20 02:54:15 20.9 26 15.2
003AD0EB 2019-02-20 02:24:31 20.9 26 14.9
003AD0EB 2019-02-20 01:54:49 20.9 26 14.8
003AD0EB 2019-02-20 01:25:05 20.9 26 14.4
003AD0EB 2019-02-20 00:55:23 20.9 26 14
003AD0EB 2019-02-20 00:25:43 20.9 26 13.9
003AD0EB 2019-02-19 23:55:59 20.9 26 13.5
003AD0EB 2019-02-19 23:26:18 20.9 26 13.3
003AD0EB 2019-02-19 22:56:36 20.9 26 12.7
003AD0EB 2019-02-19 22:26:54 20.9 26 12.7
003AD0EB 2019-02-19 21:57:12 21 26 12.4
003AD0EB 2019-02-19 21:27:29 21 26 12.1
003AD0EB 2019-02-19 20:57:46 21 26 11.6
003AD0EB 2019-02-19 20:28:04 21 26 12.1
003AD0EB 2019-02-19 19:58:22 21 26 12.4
003AD0EB 2019-02-19 19:28:39 21 26 12.3
003AD0EB 2019-02-19 18:58:57 21.1 26 12.5
003AD0EB 2019-02-19 18:29:15 21.3 26 12.6
003AD0EB 2019-02-19 18:28:05 21.1 26 12.6
003AD0EB 2019-02-19 17:58:23 21.1 26 12.9
003AD0EB 2019-02-19 17:28:41 21.1 26 12.8
003AD0EB 2019-02-19 16:58:58 21.1 26 12.8
003AD0EB 2019-02-19 16:29:16 21.1 26 17.6
003AD0EB 2019-02-19 15:59:39 21.1 26 17.7
003AD0EB 2019-02-19 15:29:54 21.1 26 17.7
003AD0EB 2019-02-19 15:00:11 21.1 26 17.8
003AD0EB 2019-02-19 14:30:32 21.1 26 17.8
003AD0EB 2019-02-19 13:31:05 21 26 17.8
003AD0EB 2019-02-19 13:01:22 21.1 25 17.9
003AD0EB 2019-02-19 12:01:58 21 25 18
003AD0EB 2019-02-19 11:32:15 21 25 18
003AD0EB 2019-02-19 11:02:31 21 25 18
003AD0EB 2019-02-19 09:33:21 20.9 25 18
003AD0EB 2019-02-19 08:04:15 20.8 24 18
003AD0EB 2019-02-19 07:34:32 20.8 24 18
003AD0EB 2019-02-19 07:04:52 20.8 24 18
003AD0EB 2019-02-19 06:35:08 20.9 24 18
003AD0EB 2019-02-19 06:05:26 20.8 24 18
003AD0EB 2019-02-19 05:35:44 20.8 24 17.9
003AD0EB 2019-02-19 05:06:02 20.8 24 17.8
003AD0EB 2019-02-19 04:36:22 20.8 23 17.8
003AD0EB 2019-02-19 04:06:38 20.8 23 19.9
003AD0EB 2019-02-19 03:36:57 20.8 23 19.9
003AD0EB 2019-02-19 03:07:16 20.8 23 20
003AD0EB 2019-02-19 02:37:38 20.8 23 20
003AD0EB 2019-02-19 02:07:55 20.8 23 20.2
003AD0EB 2019-02-19 01:38:16 20.8 23 20.3
003AD0EB 2019-02-19 01:08:33 20.8 23 18.4
003AD0EB 2019-02-19 00:38:51 20.8 23 18.6
003AD0EB 2019-02-19 00:09:10 20.9 22 18.8
003AD0EB 2019-02-18 23:39:30 20.9 22 19.4
003AD0EB 2019-02-18 22:40:05 20.8 22 19.8
003AD0EB 2019-02-18 22:10:24 20.9 22 19.9
003AD0EB 2019-02-18 21:40:42 20.9 22 20.1
003AD0EB 2019-02-18 21:11:01 20.9 22 20.2
003AD0EB 2019-02-18 20:11:42 20.9 22 20.4
003AD0EB 2019-02-18 19:41:57 20.9 22 20.6
003AD0EB 2019-02-18 19:12:15 20.9 21 20.9
003AD0EB 2019-02-18 18:42:37 21 21 21.3
003AD0EB 2019-02-18 18:12:53 21.2 21 21.4
003AD0EB 2019-02-18 18:11:42 21 21 21.5
003AD0EB 2019-02-18 17:42:00 21 21 21.8
003AD0EB 2019-02-18 17:12:19 21 21 22.1
003AD0EB 2019-02-18 16:42:34 21 21 22.3
003AD0EB 2019-02-18 16:12:53 21 21 22.4
003AD0EB 2019-02-18 15:43:10 21.1 21 22.5
003AD0EB 2019-02-18 15:13:29 21.1 21 21.6
003AD0EB 2019-02-18 13:44:20 21.2 20 21.9
003AD0EB 2019-02-18 13:14:38 21.2 20 21.9
003AD0EB 2019-02-18 12:44:55 21.3 20 22
003AD0EB 2019-02-18 12:15:13 21.4 20 22
003AD0EB 2019-02-18 11:45:30 21.3 19 22.2
003AD0EB 2019-02-18 11:15:47 21.3 19 22.3
003AD0EB 2019-02-18 10:46:06 21.2 19 22.4
003AD0EB 2019-02-18 10:16:24 21.2 19 22.4
003AD0EB 2019-02-18 09:46:43 21.2 19 22.4
003AD0EB 2019-02-18 09:17:01 21.1 19 22.5
003AD0EB 2019-02-18 08:47:19 21.1 19 22.7
003AD0EB 2019-02-18 08:17:38 21.1 19 23
003AD0EB 2019-02-18 07:47:56 21 19 23.1
003AD0EB 2019-02-18 07:18:14 21 19 23.2
003AD0EB 2019-02-18 06:48:35 21 19 23.2
003AD0EB 2019-02-18 06:18:54 21.1 19 23.2
003AD0EB 2019-02-18 05:49:14 21 19 23.2
003AD0EB 2019-02-18 05:19:34 21 19 23.3
003AD0EB 2019-02-18 04:49:53 21 19 23.4
003AD0EB 2019-02-18 04:20:12 21 19 23.4
003AD0EB 2019-02-18 03:50:30 21 19 23.5
003AD0EB 2019-02-18 03:20:49 21.1 19 23.6
003AD0EB 2019-02-18 02:51:09 21 19 23.7
003AD0EB 2019-02-18 02:21:27 21.1 19 23.8
003AD0EB 2019-02-18 01:51:46 21.1 19 23.9
003AD0EB 2019-02-18 01:22:05 21.1 19 23.9
003AD0EB 2019-02-18 00:52:24 21.1 19 24
003AD0EB 2019-02-18 00:22:45 21.1 20 24.1
003AD0EB 2019-02-17 23:53:04 21.1 20 24.2
003AD0EB 2019-02-17 23:23:22 21.1 20 24.2
003AD0EB 2019-02-17 22:53:39 21.1 20 24.2
003AD0EB 2019-02-17 22:23:57 21.1 20 24.3
003AD0EB 2019-02-17 21:54:14 21.1 20 24.5
003AD0EB 2019-02-17 21:24:32 21.1 20 24.4
003AD0EB 2019-02-17 20:54:49 21.1 20 24.3
003AD0EB 2019-02-17 20:25:06 21.1 20 24.3
003AD0EB 2019-02-17 19:55:24 21.2 20 24
003AD0EB 2019-02-17 19:25:42 21.2 20 24
003AD0EB 2019-02-17 18:56:00 21.1 20 24.1
003AD0EB 2019-02-17 18:26:17 21.2 20 24.1
003AD0EB 2019-02-17 17:56:35 21.4 20 24.2
003AD0EB 2019-02-17 17:55:25 21.2 20 24.3
003AD0EB 2019-02-17 17:25:46 21.2 21 24.2
003AD0EB 2019-02-17 16:56:02 21.2 21 24.3
003AD0EB 2019-02-17 16:26:21 21.2 21 24.3
003AD0EB 2019-02-17 15:56:39 21.2 21 24.2
003AD0EB 2019-02-17 15:26:59 21.2 21 24.2
003AD0EB 2019-02-17 14:57:19 21.2 21 24.3
003AD0EB 2019-02-17 14:27:39 21.2 21 24.1
003AD0EB 2019-02-17 13:57:58 21.2 21 24.2
003AD0EB 2019-02-17 13:28:17 21.2 21 24.2
003AD0EB 2019-02-17 12:58:36 21.2 21 24.2
003AD0EB 2019-02-17 12:28:54 21.2 21 24.3
003AD0EB 2019-02-17 11:59:13 21.2 21 24.2
003AD0EB 2019-02-17 11:29:32 21.1 22 24.2
003AD0EB 2019-02-17 10:59:51 21.2 21 24.4
003AD0EB 2019-02-17 10:30:09 21.2 22 24.3
003AD0EB 2019-02-17 10:00:28 21.2 22 24.2
003AD0EB 2019-02-17 09:30:47 21.1 22 24.1
003AD0EB 2019-02-17 09:01:05 21.2 22 24.2
003AD0EB 2019-02-17 08:31:24 21.2 22 24.2
003AD0EB 2019-02-17 08:01:42 21.2 22 24.2
003AD0EB 2019-02-17 07:32:01 21.2 22 24.3
003AD0EB 2019-02-17 07:02:20 21.2 22 24.3
003AD0EB 2019-02-17 06:32:38 21.2 22 24.3
003AD0EB 2019-02-17 06:02:57 21.2 23 24.3
003AD0EB 2019-02-17 05:33:16 21.2 23 24.4
003AD0EB 2019-02-17 05:03:35 21.2 23 24.5
003AD0EB 2019-02-17 04:33:54 21.2 23 24.3
003AD0EB 2019-02-17 04:04:10 21.2 23 24.2
003AD0EB 2019-02-17 03:34:30 21.2 23 24.2
003AD0EB 2019-02-17 03:04:48 21.2 23 24
003AD0EB 2019-02-17 02:35:08 21.2 24 23.9
003AD0EB 2019-02-17 02:05:28 21.2 24 24.1
003AD0EB 2019-02-17 01:35:48 21.2 24 24.1
003AD0EB 2019-02-17 01:06:06 21.2 24 24
003AD0EB 2019-02-17 00:36:25 21.2 24 24
003AD0EB 2019-02-17 00:06:43 21.3 24 23.9
003AD0EB 2019-02-16 23:37:02 21.2 24 24
003AD0EB 2019-02-16 23:07:19 21.3 24 24
003AD0EB 2019-02-16 22:37:38 21.3 24 24
003AD0EB 2019-02-16 22:07:57 21.3 24 24
003AD0EB 2019-02-16 21:38:17 21.3 24 24
003AD0EB 2019-02-16 21:08:36 21.3 24 24
003AD0EB 2019-02-16 20:38:53 21.3 25 24.1
003AD0EB 2019-02-16 20:09:12 21.3 25 24.1
003AD0EB 2019-02-16 19:39:31 21.3 25 24.1
003AD0EB 2019-02-16 19:09:50 21.3 25 24.1
003AD0EB 2019-02-16 18:40:09 21.3 25 24.5
003AD0EB 2019-02-16 18:10:28 21.3 25 24.5
003AD0EB 2019-02-16 17:40:45 21.6 24 24.9
003AD0EB 2019-02-16 17:39:36 21.3 25 24.6
003AD0EB 2019-02-16 17:09:53 21.4 25 24.7
003AD0EB 2019-02-16 16:40:10 21.4 25 24.7
003AD0EB 2019-02-16 15:40:45 21.4 25 24.8
003AD0EB 2019-02-16 15:11:02 21.4 25 24.8
003AD0EB 2019-02-16 14:41:19 21.4 25 24.9
003AD0EB 2019-02-16 14:11:36 21.4 25 24.9
003AD0EB 2019-02-16 13:41:54 21.4 25 24.9
003AD0EB 2019-02-16 13:12:11 21.3 25 24.9
003AD0EB 2019-02-16 12:42:27 21.3 25 25
003AD0EB 2019-02-16 12:12:45 21.3 25 25.2
003AD0EB 2019-02-16 11:43:02 21.3 25 25.2
003AD0EB 2019-02-16 11:13:20 21.3 25 25.2
003AD0EB 2019-02-16 10:43:38 21.3 25 25.1
003AD0EB 2019-02-16 10:13:57 21.3 25 25
003AD0EB 2019-02-16 09:44:15 21.2 25 25.1
003AD0EB 2019-02-16 09:14:33 21.3 25 25.1
003AD0EB 2019-02-16 08:44:52 21.3 25 25.1
003AD0EB 2019-02-16 08:15:11 21.3 25 25.2
003AD0EB 2019-02-16 07:45:27 21.3 25 25.2
003AD0EB 2019-02-16 07:15:44 21.3 25 25.3
003AD0EB 2019-02-16 06:46:01 21.3 25 25.3
003AD0EB 2019-02-16 06:16:18 21.3 25 25.5
003AD0EB 2019-02-16 05:46:37 21.3 25 25.2
003AD0EB 2019-02-16 05:16:55 21.3 25 25.4
003AD0EB 2019-02-16 04:47:13 21.3 25 25.3
003AD0EB 2019-02-16 04:17:30 21.3 25 25.3
003AD0EB 2019-02-16 03:47:48 21.3 25 25.3
003AD0EB 2019-02-16 03:18:06 21.4 25 25.2
003AD0EB 2019-02-16 02:48:25 21.4 25 25.2
003AD0EB 2019-02-16 02:18:44 21.4 25 25.3
003AD0EB 2019-02-16 01:49:01 21.4 25 25.2
003AD0EB 2019-02-16 01:19:19 21.4 25 25.2
003AD0EB 2019-02-16 00:49:37 21.4 25 25
003AD0EB 2019-02-16 00:19:55 21.4 25 24.9
003AD0EB 2019-02-15 23:50:13 21.4 25 24.7
003AD0EB 2019-02-15 23:20:32 21.5 25 24.6
003AD0EB 2019-02-15 22:50:51 21.5 25 24.6
003AD0EB 2019-02-15 22:21:09 21.5 25 24.7
003AD0EB 2019-02-15 21:51:26 21.5 25 24.8
003AD0EB 2019-02-15 21:21:43 21.6 25 24.8
003AD0EB 2019-02-15 20:52:01 21.6 25 24.8
003AD0EB 2019-02-15 20:22:20 21.6 25 24.9
003AD0EB 2019-02-15 19:52:38 21.7 25 24.7
003AD0EB 2019-02-15 19:22:56 21.7 25 24.6
003AD0EB 2019-02-15 18:53:14 21.7 25 24.5
003AD0EB 2019-02-15 18:23:33 21.7 25 23.9
003AD0EB 2019-02-15 17:53:50 21.7 24 23.6
003AD0EB 2019-02-15 17:24:08 22 24 23.7
003AD0EB 2019-02-15 17:23:00 21.7 24 23.6
003AD0EB 2019-02-15 16:53:16 21.7 24 23.4
003AD0EB 2019-02-15 16:23:35 21.7 24 23.5
003AD0EB 2019-02-15 15:53:52 21.7 24 23.5
003AD0EB 2019-02-15 15:24:11 21.7 24 23.5
003AD0EB 2019-02-15 14:54:29 21.7 24 23.6
003AD0EB 2019-02-15 14:24:47 21.7 24 23.4
003AD0EB 2019-02-15 13:55:04 21.6 24 23.5
003AD0EB 2019-02-15 13:25:22 21.6 24 23.5
003AD0EB 2019-02-15 12:55:39 21.6 24 23.5
003AD0EB 2019-02-15 12:25:56 21.5 24 23.4
003AD0EB 2019-02-15 11:56:12 21.6 24 23.5
003AD0EB 2019-02-15 11:26:29 21.5 24 23.5
003AD0EB 2019-02-15 10:56:45 21.5 24 23.5
003AD0EB 2019-02-15 10:27:01 21.5 25 23.3
003AD0EB 2019-02-15 09:57:17 21.5 25 23.1
003AD0EB 2019-02-15 09:27:39 21.4 25 22.8
003AD0EB 2019-02-15 08:57:56 21.4 25 22.9
003AD0EB 2019-02-15 08:28:14 21.4 25 22.8
003AD0EB 2019-02-15 07:58:31 21.4 25 22.7
003AD0EB 2019-02-15 07:28:48 21.4 25 22.6
003AD0EB 2019-02-15 06:59:05 21.4 25 22.7
003AD0EB 2019-02-15 06:29:22 21.4 25 22.8
003AD0EB 2019-02-15 05:59:41 21.4 25 22.6
003AD0EB 2019-02-15 05:29:59 21.4 25 22.3
003AD0EB 2019-02-15 05:00:18 21.4 25 22.1
003AD0EB 2019-02-15 04:30:35 21.4 25 22.2
003AD0EB 2019-02-15 04:00:52 21.4 25 22
003AD0EB 2019-02-15 03:31:10 21.4 25 21.8
003AD0EB 2019-02-15 03:01:29 21.4 25 21.8
003AD0EB 2019-02-15 02:31:46 21.5 25 21.8
003AD0EB 2019-02-15 02:02:05 21.4 25 22
003AD0EB 2019-02-15 01:32:22 21.5 25 21.7
003AD0EB 2019-02-15 01:02:41 21.5 25 21.6
003AD0EB 2019-02-15 00:32:58 21.5 25 21.6
003AD0EB 2019-02-15 00:03:15 21.5 25 21.7
003AD0EB 2019-02-14 23:33:32 21.5 25 21.6
003AD0EB 2019-02-14 23:03:50 21.5 25 21.5
003AD0EB 2019-02-14 22:34:06 21.6 25 21.2
003AD0EB 2019-02-14 22:04:23 21.6 24 21.1
003AD0EB 2019-02-14 21:34:40 21.6 24 21
003AD0EB 2019-02-14 21:04:59 21.6 24 21
003AD0EB 2019-02-14 20:35:17 21.7 24 20.7
003AD0EB 2019-02-14 20:05:35 21.7 24 20.4
003AD0EB 2019-02-14 19:35:53 21.8 24 20.5
003AD0EB 2019-02-14 19:06:10 21.8 24 20.5
003AD0EB 2019-02-14 18:36:28 21.8 24 20.2
003AD0EB 2019-02-14 18:06:45 21.9 24 20.1
003AD0EB 2019-02-14 17:37:02 21.9 24 20.2
003AD0EB 2019-02-14 17:07:21 22.2 24 20.1
003AD0EB 2019-02-14 17:06:12 21.9 24 20.1
003AD0EB 2019-02-14 16:36:31 22 24 20.2
003AD0EB 2019-02-14 16:06:50 22 24 20.3
003AD0EB 2019-02-14 15:37:09 22 23 20.4
003AD0EB 2019-02-14 15:07:28 21.9 29 20.3
003AD0EB 2019-02-14 14:37:47 21.8 24 19.8
003AD0EB 2019-02-14 14:08:07 21.7 23 19.4
003AD0EB 2019-02-14 13:38:26 21.6 23 19.7
003AD0EB 2019-02-14 13:08:45 21.6 23 19.5
003AD0EB 2019-02-14 12:39:05 21.5 23 19.5
003AD0EB 2019-02-14 12:09:25 21.4 23 19.2
003AD0EB 2019-02-14 11:39:43 21.3 24 19.4
003AD0EB 2019-02-14 11:10:02 21.4 24 19.3
003AD0EB 2019-02-14 10:40:20 21.1 24 19.3
003AD0EB 2019-02-14 10:10:41 21 24 19.3
003AD0EB 2019-02-14 09:41:02 20.9 23 19.4
003AD0EB 2019-02-14 09:11:18 20.9 24 19.3
003AD0EB 2019-02-14 08:41:37 20.8 24 19.2
003AD0EB 2019-02-14 08:11:55 20.8 24 19.4
003AD0EB 2019-02-14 07:42:12 20.8 25 19.4
003AD0EB 2019-02-14 07:12:32 20.8 25 20.9
003AD0EB 2019-02-14 06:42:51 20.8 25 20.9
003AD0EB 2019-02-14 06:13:11 20.8 25 20.8
003AD0EB 2019-02-14 05:43:32 20.8 25 20.6
003AD0EB 2019-02-14 05:13:50 20.8 25 20.4
003AD0EB 2019-02-14 04:44:09 20.8 25 20.2
003AD0EB 2019-02-14 04:14:27 20.8 25 20
003AD0EB 2019-02-14 03:44:46 20.9 25 19.9
003AD0EB 2019-02-14 03:15:05 20.9 25 19.8
003AD0EB 2019-02-14 02:45:24 20.9 25 19.7
003AD0EB 2019-02-14 02:15:44 20.9 25 19.6
003AD0EB 2019-02-14 01:46:03 20.9 25 19.6
003AD0EB 2019-02-14 01:16:23 20.9 25 19.5
003AD0EB 2019-02-14 00:46:41 20.9 25 19.5
003AD0EB 2019-02-14 00:17:00 20.9 25 19.3
003AD0EB 2019-02-13 23:47:18 20.9 25 19.3
003AD0EB 2019-02-13 23:17:37 20.9 25 19.1
003AD0EB 2019-02-13 22:47:55 21 25 19.2
003AD0EB 2019-02-13 22:18:15 21 25 19.1
003AD0EB 2019-02-13 21:48:33 21.1 25 19.1
003AD0EB 2019-02-13 21:18:52 21.1 25 19.1
003AD0EB 2019-02-13 20:49:10 21.2 25 19.1
003AD0EB 2019-02-13 20:19:29 21.2 25 19.3
003AD0EB 2019-02-13 19:49:48 21.3 25 19.2
003AD0EB 2019-02-13 19:20:01 21.3 25 19
003AD0EB 2019-02-13 18:50:18 21.4 25 19
003AD0EB 2019-02-13 18:20:34 21.5 26 19.5
003AD0EB 2019-02-13 17:50:52 21.5 26 19.9
003AD0EB 2019-02-13 17:21:10 21.4 26 20
003AD0EB 2019-02-13 16:51:31 21.6 26 20.4
003AD0EB 2019-02-13 16:50:18 21.4 27 20.6
003AD0EB 2019-02-13 16:20:35 21.3 25 20.8
003AD0EB 2019-02-13 15:50:52 21.3 25 21
003AD0EB 2019-02-13 15:21:09 21.3 25 21.3
003AD0EB 2019-02-13 14:51:26 21.2 25 21.3
003AD0EB 2019-02-13 14:21:42 21.2 24 21.5
003AD0EB 2019-02-13 13:51:58 21.2 24 21.7
003AD0EB 2019-02-13 13:22:14 21.2 24 21.7
003AD0EB 2019-02-13 12:52:31 21.2 24 21.7
003AD0EB 2019-02-13 12:22:48 21.1 24 22
003AD0EB 2019-02-13 11:53:03 21.1 24 22.2
003AD0EB 2019-02-13 11:23:20 21 24 22.1
003AD0EB 2019-02-13 10:53:38 21 24 22.2
003AD0EB 2019-02-13 10:23:54 20.9 23 22.3
003AD0EB 2019-02-13 09:54:10 20.9 23 22.4
003AD0EB 2019-02-13 09:24:27 20.8 22 22.5
003AD0EB 2019-02-13 08:54:43 20.8 21 22.5
003AD0EB 2019-02-13 08:25:02 20.7 21 22.5
003AD0EB 2019-02-13 07:55:19 20.8 20 22.5
003AD0EB 2019-02-13 07:25:38 20.8 19 22.5
003AD0EB 2019-02-13 06:55:57 20.8 19 21.4
003AD0EB 2019-02-13 06:26:16 20.8 19 21.1
003AD0EB 2019-02-13 05:56:31 20.8 19 21
003AD0EB 2019-02-13 05:26:49 20.8 19 20.9
003AD0EB 2019-02-13 04:57:07 20.8 19 20.6
003AD0EB 2019-02-13 04:27:25 20.8 19 21.7
003AD0EB 2019-02-13 03:57:44 20.8 19 21.6
003AD0EB 2019-02-13 03:28:02 20.8 19 21.4
003AD0EB 2019-02-13 02:58:20 20.8 18 21.2
003AD0EB 2019-02-13 02:28:39 20.9 18 21.4
003AD0EB 2019-02-13 01:58:57 20.9 18 21.2
003AD0EB 2019-02-13 01:29:16 20.9 18 20.9
003AD0EB 2019-02-13 00:59:35 20.9 18 20.8
003AD0EB 2019-02-13 00:29:54 20.9 19 20.8
003AD0EB 2019-02-13 00:00:12 21 19 20.3
003AD0EB 2019-02-12 23:30:29 21 19 20.1
003AD0EB 2019-02-12 23:00:48 21 19 20.1
003AD0EB 2019-02-12 22:31:07 21 19 19.7
003AD0EB 2019-02-12 22:01:24 21.1 19 19.8
003AD0EB 2019-02-12 21:31:43 21.2 20 19.7
003AD0EB 2019-02-12 21:02:04 21.3 20 19.6
003AD0EB 2019-02-12 20:32:19 21.4 20 19.9
003AD0EB 2019-02-12 20:02:39 21.5 20 19.7
003AD0EB 2019-02-12 19:32:58 21.5 20 19.9
003AD0EB 2019-02-12 19:03:15 21.6 19 19.8
003AD0EB 2019-02-12 18:33:32 21.6 19 20
003AD0EB 2019-02-12 18:03:50 21.6 19 19.9
003AD0EB 2019-02-12 17:34:07 21.8 18 20.1
003AD0EB 2019-02-12 17:04:25 21.9 18 20.1
003AD0EB 2019-02-12 16:34:43 22.3 18 20.2
003AD0EB 2019-02-12 16:33:33 22.1 18 20.2
003AD0EB 2019-02-12 16:03:52 22.2 18 20.1
003AD0EB 2019-02-12 15:34:09 22.2 19 20
003AD0EB 2019-02-12 15:04:26 22.2 19 20
003AD0EB 2019-02-12 14:34:44 22 19 19.8
003AD0EB 2019-02-12 14:05:01 21.4 19 19.8
003AD0EB 2019-02-12 13:35:19 21.4 19 19.8
003AD0EB 2019-02-12 13:05:37 21.4 19 19.8
003AD0EB 2019-02-12 12:35:56 21.4 20 19.8
003AD0EB 2019-02-12 12:06:16 21.3 20 19.8
003AD0EB 2019-02-12 11:36:32 21.3 20 21.3
003AD0EB 2019-02-12 11:06:49 21.3 21 21.3
003AD0EB 2019-02-12 10:37:06 21.3 21 21.3
003AD0EB 2019-02-12 10:07:22 21.1 21 21.1
003AD0EB 2019-02-12 09:37:39 21.1 22 21.1
003AD0EB 2019-02-12 09:07:57 21 23 21.1
003AD0EB 2019-02-12 08:38:13 20.9 23 22.1
003AD0EB 2019-02-12 08:08:29 20.8 24 22.1
003AD0EB 2019-02-12 07:38:45 20.8 25 22
003AD0EB 2019-02-12 07:09:01 20.9 25 22
003AD0EB 2019-02-12 06:39:17 20.9 26 22.9
003AD0EB 2019-02-12 06:09:34 20.9 26 22.9
003AD0EB 2019-02-12 05:39:51 20.9 26 22.8
003AD0EB 2019-02-12 05:10:07 20.9 26 22.8
003AD0EB 2019-02-12 04:40:23 20.9 26 22.9
003AD0EB 2019-02-12 04:10:40 20.9 26 22.1
003AD0EB 2019-02-12 03:40:56 20.9 26 22.2
003AD0EB 2019-02-12 03:11:13 20.9 26 22.4
003AD0EB 2019-02-12 02:41:30 20.9 27 22.5
003AD0EB 2019-02-12 02:11:47 20.9 27 22.6
003AD0EB 2019-02-12 01:42:03 21 27 22.8
003AD0EB 2019-02-12 01:12:19 21 27 23
003AD0EB 2019-02-12 00:42:36 21 27 23.3
003AD0EB 2019-02-12 00:12:54 21 27 23.5
003AD0EB 2019-02-11 23:43:09 21.1 27 23.8
003AD0EB 2019-02-11 23:13:27 21.1 27 22.6
003AD0EB 2019-02-11 22:43:43 21.1 27 22.9
003AD0EB 2019-02-11 22:14:03 21.2 27 23.2
003AD0EB 2019-02-11 21:44:18 21.3 27 23.6
003AD0EB 2019-02-11 21:14:36 21.3 27 23.9
003AD0EB 2019-02-11 20:44:54 21.4 27 24.2
003AD0EB 2019-02-11 20:15:11 21.5 27 22.3
003AD0EB 2019-02-11 19:45:28 21.6 27 22.8
003AD0EB 2019-02-11 19:15:45 21.7 27 23.3
003AD0EB 2019-02-11 18:46:02 21.8 27 24.1
003AD0EB 2019-02-11 18:16:20 21.9 27 18.4
003AD0EB 2019-02-11 17:46:40 22.1 28 19.2
003AD0EB 2019-02-11 17:16:56 22.2 27 19.7
003AD0EB 2019-02-11 16:47:13 22.3 28 21.4
003AD0EB 2019-02-11 16:17:28 22.1 31 0